Salem, Oregon, United States (97301)
Lat: 44.94N, Lon: 123.03W
Wx Zone: ORZ007
Local Info
Past Weather Observations for Monday, April 21, 2014

NOTE: This archive is for the closest National Weather Service station to Salem. Information may differ from the station used for current weather conditions.

Time Weather Temperature Dewpoint Humidity Pressure Winds Precip Visibility
23:56
Overcast
48°F / 9°C 45°F / 7°C 87% 29.92 in
(1013 mb)
SW 6.9 mph
(SW 11 kph)
0.00 in
(0.00 mm)
10SM
23:14
Overcast
Light Rain
48°F / 9°C 46°F / 8°C 94% 29.92 in
(1013 mb)
SSE 6.9 mph
(SSE 11 kph)
0.00 in
(0.00 mm)
10SM
22:56
Overcast
Light Rain
48°F / 9°C 46°F / 8°C 94% 29.89 in
(1012 mb)
SW 5.8 mph
(SW 9 kph)
0.00 in
(0.00 mm)
10SM
22:48
Overcast
Light Rain
50°F / 10°C 46°F / 8°C 88% 29.92 in
(1013 mb)
SW 4.6 mph
(SW 7 kph)
0.00 in
(0.00 mm)
10SM
21:56
Overcast
48°F / 9°C 46°F / 8°C 94% 29.89 in
(1012 mb)
S 3.5 mph
(S 6 kph)
0.02 in
(0.51 mm)
10SM
20:56
Overcast
Light Rain
50°F / 10°C 46°F / 8°C 88% 29.92 in
(1013 mb)
SW 3.5 mph
(SW 6 kph)
0.00 in
(0.00 mm)
10SM
19:56
Overcast
50°F / 10°C 46°F / 8°C 88% 29.92 in
(1013 mb)
SW 6.9 mph
(SW 11 kph)
0.00 in
(0.00 mm)
10SM
18:56
Overcast
Light Rain
52°F / 11°C 48°F / 9°C 88% 29.92 in
(1013 mb)
S 5.8 mph
(S 9 kph)
0.02 in
(0.51 mm)
5SM
17:56
Overcast
Light Rain
52°F / 11°C 48°F / 9°C 88% 29.92 in
(1013 mb)
SE 3.5 mph
(SE 6 kph)
0.02 in
(0.51 mm)
7SM
17:03
Overcast
Light Rain
52°F / 11°C 46°F / 8°C 82% 29.95 in
(1014 mb)
S 3.5 mph
(S 6 kph)
0.00 in
(0.00 mm)
10SM
16:56
Overcast
52°F / 11°C 48°F / 9°C 88% 29.95 in
(1014 mb)
S 3.5 mph
(S 6 kph)
0.06 in
(1.52 mm)
10SM
15:56
Overcast
Light Rain
54°F / 12°C 48°F / 9°C 82% 29.95 in
(1014 mb)
SSW 13.8 mph
(SSW 22 kph)
0.07 in
(1.78 mm)
4SM
14:56
Overcast
Light Rain
61°F / 16°C 45°F / 7°C 55% 29.92 in
(1013 mb)
SW 6.9 mph
(SW 11 kph)
0.00 in
(0.00 mm)
9SM
13:56
Partly Cloudy
63°F / 17°C 39°F / 4°C 42% 29.92 in
(1013 mb)
SSE 4.6 mph
(SSE 7 kph)
- 10SM
12:56
Clear
63°F / 17°C 41°F / 5°C 45% 29.92 in
(1013 mb)
Variable 5.8 mph
(Variable 9 kph)
- 10SM
11:56
Partly Cloudy
63°F / 17°C 43°F / 6°C 49% 29.95 in
(1014 mb)
Variable 5.8 mph
(Variable 9 kph)
- 10SM
10:56
Clear
59°F / 15°C 41°F / 5°C 51% 29.98 in
(1015 mb)
SSE 4.6 mph
(SSE 7 kph)
- 10SM
09:56
Clear
55°F / 13°C 43°F / 6°C 63% 30.01 in
(1016 mb)
SSE 4.6 mph
(SSE 7 kph)
- 10SM
08:56
Clear
54°F / 12°C 43°F / 6°C 67% 30.04 in
(1017 mb)
S 3.5 mph
(S 6 kph)
- 10SM
07:56
Clear
50°F / 10°C 43°F / 6°C 76% 30.06 in
(1018 mb)
SSE 5.8 mph
(SSE 9 kph)
- 10SM
06:56
Overcast
48°F / 9°C 43°F / 6°C 82% 30.06 in
(1018 mb)
SE 4.6 mph
(SE 7 kph)
- 10SM
05:56
Partly Cloudy
48°F / 9°C 39°F / 4°C 71% 30.06 in
(1018 mb)
W 5.8 mph
(W 9 kph)
- 10SM
04:56
Mostly Cloudy
48°F / 9°C 43°F / 6°C 82% 30.06 in
(1018 mb)
SSE 5.8 mph
(SSE 9 kph)
- 10SM
03:56
Overcast
48°F / 9°C 43°F / 6°C 82% 30.06 in
(1018 mb)
S 5.8 mph
(S 9 kph)
- 10SM
02:56
Clear
46°F / 8°C 43°F / 6°C 87% 30.09 in
(1019 mb)
Calm - 10SM
01:56
Clear
48°F / 9°C 41°F / 5°C 76% 30.09 in
(1019 mb)
Calm - 10SM
00:56
Clear
48°F / 9°C 41°F / 5°C 76% 30.12 in
(1020 mb)
S 3.5 mph
(S 6 kph)
- 10SM
Time Weather Temperature Dewpoint Humidity Pressure Winds Precip Visibility


Weather for websites

WeatherForYou.com, LLC is not responsible for any damages or problems caused by this service. Current weather conditions are obtained from the closest station including government and personal stations which may have varying degrees of accuracy. Weather forecasts are derived from the NOAA NDFD. Like all things, this site belongs to Jesus Christ... He just trusts me to maintain it. If you have any questions or comments email webmaster@weatherforyou.com

Copyright © 2014, WeatherForYou.com LLC. All rights reserved.